| time (UTC) | temp C | wind direction | speed KPH | gust KPH | rain 1hr cm | rain 24hr cm | rain mn cm | humidity % | barometer mb |
| 20260505015018 | 11 | 236 | 3.2 | 11.3 | 0.00 | 0.00 | 0.00 | 78 | 1008.1 |
| 20260505014018 | 11 | 239 | 3.2 | 8.0 | 0.00 | 0.00 | 0.00 | 78 | 1008.1 |
| 20260505013018 | 11 | 236 | 4.8 | 14.5 | 0.00 | 0.00 | 0.00 | 79 | 1007.9 |
| 20260505012038 | 11 | 238 | 4.8 | 9.7 | 0.00 | 0.00 | 0.00 | 78 | 1007.8 |
| 20260505011039 | 11 | 238 | 4.8 | 12.9 | 0.00 | 0.00 | 0.00 | 78 | 1007.7 |
| 20260505010039 | 11 | 255 | 3.2 | 8.0 | 0.00 | 0.00 | 0.00 | 77 | 1007.6 |
| 20260505005019 | 11 | 220 | 4.8 | 16.1 | 0.00 | 0.00 | 0.00 | 76 | 1007.5 |
| 20260505004040 | 12 | 211 | 1.6 | 11.3 | 0.00 | 0.00 | 0.00 | 74 | 1007.3 |
| 20260505003019 | 15 | 228 | 1.6 | 4.8 | 0.00 | 0.00 | 0.00 | 66 | 1007.1 |
| 20260505002020 | 17 | 227 | 1.6 | 8.0 | 0.00 | 0.00 | 0.00 | 48 | 1006.9 |
| 20260505001020 | 18 | 245 | 3.2 | 8.0 | 0.00 | 0.00 | 0.00 | 41 | 1006.6 |
| 20260505000017 | 18 | 232 | 1.6 | 6.4 | 0.00 | 0.00 | 0.00 | 40 | 1006.5 |
| 20260504235017 | 18 | 241 | 3.2 | 6.4 | 0.00 | 0.00 | 0.00 | 41 | 1006.4 |
| 20260504234017 | 19 | 236 | 3.2 | 8.0 | 0.00 | 0.00 | 0.00 | 40 | 1006.3 |
| 20260504233020 | 20 | 242 | 4.8 | 11.3 | 0.00 | 0.00 | 0.00 | 39 | 1006.2 |
| 20260504232020 | 21 | 252 | 3.2 | 8.0 | 0.00 | 0.00 | 0.00 | 36 | 1006.0 |
| 20260504231018 | 21 | 255 | 6.4 | 14.5 | 0.00 | 0.00 | 0.00 | 35 | 1005.9 |
| 20260504230018 | 21 | 250 | 6.4 | 12.9 | 0.00 | 0.00 | 0.00 | 34 | 1005.8 |
| 20260504225018 | 21 | 256 | 8.0 | 16.1 | 0.00 | 0.00 | 0.00 | 35 | 1005.7 |
| 20260504224018 | 21 | 251 | 8.0 | 12.9 | 0.00 | 0.00 | 0.00 | 35 | 1005.6 |
| 20260504223038 | 21 | 251 | 9.7 | 17.7 | 0.00 | 0.00 | 0.00 | 35 | 1005.6 |
| 20260504222018 | 22 | 242 | 6.4 | 16.1 | 0.00 | 0.00 | 0.00 | 35 | 1005.5 |
| 20260504221018 | 22 | 248 | 6.4 | 14.5 | 0.00 | 0.00 | 0.00 | 33 | 1005.5 |
| 20260504220019 | 21 | 249 | 8.0 | 14.5 | 0.00 | 0.00 | 0.00 | 34 | 1005.5 |
| 20260504215019 | 20 | 256 | 8.0 | 17.7 | 0.00 | 0.00 | 0.00 | 36 | 1005.6 |
| 20260504214019 | 20 | 256 | 8.0 | 16.1 | 0.00 | 0.00 | 0.00 | 36 | 1005.6 |
| 20260504213019 | 21 | 250 | 8.0 | 17.7 | 0.00 | 0.00 | 0.00 | 36 | 1005.6 |
| 20260504212019 | 21 | 248 | 8.0 | 19.3 | 0.00 | 0.00 | 0.00 | 35 | 1005.6 |
| 20260504211016 | 20 | 253 | 8.0 | 17.7 | 0.00 | 0.00 | 0.00 | 37 | 1005.6 |
| 20260504210017 | 21 | 254 | 11.3 | 20.9 | 0.00 | 0.00 | 0.00 | 35 | 1005.5 |
| 20260504205040 | 21 | 253 | 11.3 | 20.9 | 0.00 | 0.00 | 0.00 | 34 | 1005.5 |
| 20260504204020 | 21 | 252 | 12.9 | 19.3 | 0.00 | 0.00 | 0.00 | 34 | 1005.6 |
| 20260504203020 | 21 | 263 | 12.9 | 20.9 | 0.00 | 0.00 | 0.00 | 34 | 1005.6 |
| 20260504202018 | 21 | 254 | 11.3 | 20.9 | 0.00 | 0.00 | 0.00 | 35 | 1005.5 |
| 20260504201018 | 21 | 248 | 11.3 | 22.5 | 0.00 | 0.00 | 0.00 | 34 | 1005.5 |
| 20260504200018 | 21 | 244 | 9.7 | 19.3 | 0.00 | 0.00 | 0.00 | 35 | 1005.5 |
| 20260504195018 | 21 | 248 | 9.7 | 20.9 | 0.00 | 0.00 | 0.00 | 35 | 1005.6 |
| 20260504194018 | 21 | 253 | 12.9 | 25.7 | 0.00 | 0.00 | 0.00 | 35 | 1005.6 |
| 20260504193019 | 21 | 257 | 12.9 | 22.5 | 0.00 | 0.00 | 0.00 | 34 | 1005.7 |
| 20260504192018 | 20 | 260 | 11.3 | 20.9 | 0.00 | 0.00 | 0.00 | 35 | 1005.7 |
| 20260504191038 | 20 | 263 | 11.3 | 22.5 | 0.00 | 0.00 | 0.00 | 35 | 1005.7 |
| 20260504190019 | 20 | 266 | 14.5 | 25.7 | 0.00 | 0.00 | 0.00 | 35 | 1005.8 |
| 20260504185018 | 20 | 267 | 14.5 | 24.1 | 0.00 | 0.00 | 0.00 | 35 | 1005.9 |
| 20260504184039 | 21 | 256 | 14.5 | 22.5 | 0.00 | 0.00 | 0.00 | 35 | 1005.8 |
| 20260504183016 | 21 | 259 | 14.5 | 24.1 | 0.00 | 0.00 | 0.00 | 34 | 1005.7 |
| 20260504182020 | 21 | 262 | 16.1 | 32.2 | 0.00 | 0.00 | 0.00 | 34 | 1005.7 |
| 20260504181020 | 21 | 255 | 16.1 | 25.7 | 0.00 | 0.00 | 0.00 | 34 | 1005.7 |
| 20260504180020 | 20 | 254 | 14.5 | 22.5 | 0.00 | 0.00 | 0.00 | 34 | 1005.8 |
| 20260504175020 | 20 | 253 | 12.9 | 24.1 | 0.00 | 0.00 | 0.00 | 35 | 1005.8 |
| 20260504174017 | 20 | 246 | 14.5 | 22.5 | 0.00 | 0.00 | 0.00 | 36 | 1005.8 |
| 20260504173017 | 19 | 244 | 11.3 | 20.9 | 0.00 | 0.00 | 0.00 | 38 | 1005.9 |
| 20260504172017 | 19 | 240 | 9.7 | 20.9 | 0.00 | 0.00 | 0.00 | 38 | 1006.0 |
| 20260504171041 | 20 | 243 | 12.9 | 24.1 | 0.00 | 0.00 | 0.00 | 37 | 1006.1 |
| 20260504151017 | 16 | 229 | 3.2 | 9.7 | 0.00 | 0.00 | 0.00 | 52 | 1007.4 |
| 20260504141017 | 14 | 237 | 8.0 | 17.7 | 0.00 | 0.00 | 0.00 | 55 | 1008.3 |
| 20260504081017 | 6 | 260 | 4.8 | 9.7 | 0.00 | 0.00 | 0.00 | 65 | 1009.2 |
| 20260504050020 | 3 | 12 | 0.0 | 3.2 | 0.00 | 0.00 | 0.00 | 78 | 1008.9 |
| 20260504045017 | 3 | 206 | 0.0 | 3.2 | 0.00 | 0.00 | 0.00 | 76 | 1008.9 |
| 20260504044018 | 3 | 209 | 0.0 | 3.2 | 0.00 | 0.00 | 0.00 | 75 | 1008.9 |
| 20260504043018 | 4 | 237 | 0.0 | 3.2 | 0.00 | 0.00 | 0.00 | 76 | 1008.9 |
| 20260504042018 | 4 | 234 | 1.6 | 4.8 | 0.00 | 0.00 | 0.00 | 73 | 1008.9 |
| 20260504041018 | 4 | 238 | 4.8 | 9.7 | 0.00 | 0.00 | 0.00 | 73 | 1008.8 |
| 20260504040019 | 3 | 231 | 3.2 | 6.4 | 0.00 | 0.00 | 0.00 | 76 | 1008.7 |
| 20260504035018 | 3 | 239 | 1.6 | 4.8 | 0.00 | 0.00 | 0.00 | 76 | 1008.6 |
| 20260504034019 | 3 | 236 | 1.6 | 3.2 | 0.00 | 0.00 | 0.00 | 78 | 1008.6 |
| 20260504033019 | 3 | 229 | 1.6 | 3.2 | 0.00 | 0.00 | 0.00 | 77 | 1008.5 |
| 20260504032039 | 3 | 228 | 1.6 | 4.8 | 0.00 | 0.00 | 0.00 | 81 | 1008.5 |
| 20260504031019 | 3 | 232 | 1.6 | 4.8 | 0.00 | 0.00 | 0.00 | 79 | 1008.4 |
| 20260504030019 | 3 | 216 | 0.0 | 4.8 | 0.00 | 0.00 | 0.00 | 79 | 1008.3 |
| 20260504025059 | 3 | 261 | 0.0 | 1.6 | 0.00 | 0.00 | 0.00 | 80 | 1008.3 |
| 20260504024040 | 3 | 230 | 1.6 | 3.2 | 0.00 | 0.00 | 0.00 | 80 | 1008.4 |
| 20260504023020 | 3 | 235 | 1.6 | 3.2 | 0.00 | 0.00 | 0.00 | 79 | 1008.4 |
| 20260504022020 | 4 | 243 | 0.0 | 3.2 | 0.00 | 0.00 | 0.00 | 77 | 1008.4 |
| 20260504021017 | 5 | 263 | 0.0 | 3.2 | 0.00 | 0.00 | 0.00 | 72 | 1008.4 |
| 20260504020037 | 5 | 273 | 0.0 | 3.2 | 0.00 | 0.00 | 0.00 | 66 | 1008.4 |